Find DMSP F-18

NORAD ID: 35951 Int'l Des: 2009-057 Owner: AFSMC Country: US operational
LEOCIRCULARRETROGRADESSO

リアルタイム位置

3D地球を読み込み中...

DMSP F-18について

説明を読み込み中...

次回通過

Passes for default location (London). Set your location on the main map for personalized predictions.

高度履歴

Loading altitude history...

軌道要素

1 35951U 09057A 26106.90031625 .00000223 00000-0 13827-3 0 9996
2 35951 98.9011 87.8157 0012181 67.3166 292.9293 14.14860856850924
Epoch: Apr 16, 2026 • Age: 11 hours

現在のステータス

高度 847.0 km
速度 7.44 km/s
衛星直下点 52.75°N, 51.18°W
打ち上げ日 Oct 18, 2009
運用期間 16.4 years
タイプ other

技術仕様

分類 Payload
質量 1217.00 kg
乾燥質量 1217.00 kg
総質量 1217.00 kg
長さ 4.40 m
直径 1.20 m
スパン 6.60 m
形状 Box + Pan
製造者 LMEW/LMSS
バスタイプ Block 5D
フェーズステータス In Orbit
所有者/国 AFSMC/US

Most Searched